Tracking 19562 objects as of 24-Mar-2019
HD Live streaming from Space Station
objects crossing your sky now

COSMOS 735

Track COSMOS 735 now!
10-day predictions
COSMOS 735 is classified as:


NORAD ID: 7824
Int'l Code: 1975-045D
Perigee: 1,467.9 km
Apogee: 1,481.0 km
Inclination: 74.0 °
Period: 115.3 minutes
Semi major axis: 7845 km
RCS: 0.6749 m2 (medium)
Launch date: May 28, 1975
Source: Commonwealth of Independent States (former USSR) (CIS)
Launch site: PLESETSK MISSILE AND SPACE COMPLEX (PKMTR)
aabbcc
Your satellite tracking list
Your tracking list is empty




NASA's NSSDC Master Catalog

Two Line Element Set (TLE):
1  7824U 75045D   19082.91487519 -.00000030 +00000-0 -92033-4 0  9992
2  7824 074.0153 245.3247 0008342 271.8587 201.6231 12.49326416998611
Source of the keplerian elements: AFSPC